Current Version              Previous Version:    01  02  03  04  05  06  07  08  09  10  11  12  13  14  15  16  17  18  19  20  21  22  23  24  25  26  27  28  29  30  
   31  32  33  34  35  36  37  38  39  40  41  42  43  44  45  46  47  48  49  50  51  52  53  54  55  56  57  58  59  60  

[Printable]
734
ASUS44 KFWD 301215
RWRTX
NORTH TEXAS HOURLY WEATHER ROUNDUP
NATIONAL WEATHER SERVICE FORT WORTH TX
700 AM CDT THU OCT 30 2014

NOTE: "FAIR" INDICATES FEW OR NO CLOUDS BELOW 12,000 FEET WITH NO
SIGNIFICANT WEATHER AND/OR OBSTRUCTIONS TO VISIBILITY.

TXZ118-119-301300-
DALLAS/FORT WORTH METROPLEX

CITY           SKY/WX    TMP DP  RH WIND       PRES   REMARKS
DFW AIRPORT    CLEAR     56  46  69 SE5       30.13R
6HR MIN TEMP:  54; 6HR MAX TEMP:  60;

DALLAS LOVE    CLEAR     58  46  64 SE9       30.13S
6HR MIN TEMP:  56; 6HR MAX TEMP:  61;

FTW MEACHAM    CLEAR     55  46  71 CALM      30.12S
6HR MIN TEMP:  55; 6HR MAX TEMP:  61;

DAL-EXECUTIVE  CLEAR     54  46  74 S3        30.12S
6HR MIN TEMP:  53; 6HR MAX TEMP:  58;

FTW-ALLIANCE   CLEAR     51  46  83 CALM      30.13R
6HR MIN TEMP:  47; 6HR MAX TEMP:  57;

FTW-NAS-JRB    CLEAR     59  45  59 CALM      30.17R
6HR MIN TEMP:  59; 6HR MAX TEMP:  64;

FTW-SPINKS     CLEAR     52  46  82 CALM      30.14S
ARLINGTON      CLEAR     50  46  86 CALM      30.13S
6HR MIN TEMP:  49; 6HR MAX TEMP:  52;

GRAND PRAIRIE  CLEAR     55  48  76 MISG      30.14S
ADDISON        CLEAR     57  45  62 SE7       30.14R
MESQUITE       CLEAR     48  45  87 S3        30.14R
LANCASTER      CLEAR     46  40  81 CALM      30.15R
6HR MIN TEMP:  46; 6HR MAX TEMP:  50;

$$

TXZ091>094-102>105-117-120-121-131>134-301300-
NORTH CENTRAL TEXAS

CITY           SKY/WX    TMP DP  RH WIND       PRES   REMARKS
SHRMAN/DENISON CLEAR     50  45  83 S6        30.14S
6HR MIN TEMP:  49; 6HR MAX TEMP:  59;

GAINESVILLE    CLEAR     50  44  79 S3        30.15S
6HR MIN TEMP:  49; 6HR MAX TEMP:  52;

BOWIE          CLEAR     50  45  81 SE3       30.12F
6HR MIN TEMP:  48; 6HR MAX TEMP:  54;

BRIDGEPORT     CLEAR     46  45  95 CALM      30.14S
6HR MIN TEMP:  46; 6HR MAX TEMP:  51;

DECATUR        CLEAR     55  45  69 SE5       30.13R
6HR MIN TEMP:  55; 6HR MAX TEMP:  59;

DENTON         CLEAR     46  42  86 CALM      30.13R
6HR MIN TEMP:  45; 6HR MAX TEMP:  55;

MCKINNEY       CLEAR     44  42  93 CALM      30.15R
6HR MIN TEMP:  44; 6HR MAX TEMP:  49;

GREENVILLE     CLEAR     46  43  87 CALM      30.15R
ROCKWALL       CLEAR     53  46  75 S9        30.13R
6HR MIN TEMP:  53; 6HR MAX TEMP:  57;

TERRELL        CLEAR     49  44  83 CALM      30.14S
6HR MIN TEMP:  47; 6HR MAX TEMP:  52;

WAXAHACHIE     CLEAR     50  47  91 CALM      30.15S
6HR MIN TEMP:  49; 6HR MAX TEMP:  56;

CLEBURNE       CLEAR     54  48  82 SE5       30.15R
GRANBURY       CLEAR     50  46  83 CALM      30.14R
6HR MIN TEMP:  50; 6HR MAX TEMP:  60;

$$

TXZ083>090-098>101-113>116-127>130-139>142-154-155-301300-
WESTERN NORTH TEXAS

CITY           SKY/WX    TMP DP  RH WIND       PRES   REMARKS
WICHITA FALLS  CLEAR     51  42  71 S7        30.10S
6HR MIN TEMP:  50; 6HR MAX TEMP:  56;

WF-KICKAPOO    CLEAR     51  42  71 S3        30.12S
6HR MIN TEMP:  51; 6HR MAX TEMP:  54;

VERNON         CLEAR     52  43  71 CALM      30.10S
ABILENE        CLEAR     58  50  75 S8        30.11S
6HR MIN TEMP:  57; 6HR MAX TEMP:  60;

ABILENE-DYESS  CLEAR     58  52  80 SE12      30.10R
6HR MIN TEMP:  57; 6HR MAX TEMP:  60;

BRECKENRIDGE   MOCLDY    60  48  65 S3        30.11S
6HR MIN TEMP:  58; 6HR MAX TEMP:  62;

GRAHAM         CLEAR     54  46  75 E3        30.11R
6HR MIN TEMP:  54; 6HR MAX TEMP:  59;

MINERAL WELLS  CLEAR     51  44  77 SE3       30.12R
6HR MIN TEMP:  51; 6HR MAX TEMP:  58;

STEPHENVILLE   PTCLDY    54  47  76 CALM      30.15R
6HR MIN TEMP:  53; 6HR MAX TEMP:  58;

COMANCHE       CLOUDY    55  52  88 S3        30.14R
6HR MIN TEMP:  53; 6HR MAX TEMP:  58;

BROWNWOOD      CLOUDY    54  50  87 CALM      30.13S
COLEMAN        PTCLDY    56  51  84 CALM      30.13R
6HR MIN TEMP:  56; 6HR MAX TEMP:  61;

BRADY          CLEAR     55  55 100 SE6       30.11S
$$

TXZ143>147-156>162-174-175-301300-
CENTRAL TEXAS

CITY           SKY/WX    TMP DP  RH WIND       PRES   REMARKS
WACO           PTCLDY    51  48  89 CALM      30.13R
6HR MIN TEMP:  50; 6HR MAX TEMP:  58;

WACO-TSTC      PTCLDY    50  50 100 CALM      30.14
WACO-MCGREGOR  CLEAR     52  43  71 N3        30.15R
6HR MIN TEMP:  52; 6HR MAX TEMP:  61;

HILLSBORO      CLEAR     58  45  62 SE6       30.13S
6HR MIN TEMP:  58; 6HR MAX TEMP:  61;

CORSICANA      CLEAR     54  47  77 SE3       30.15R
6HR MIN TEMP:  53; 6HR MAX TEMP:  58;

MEXIA          CLEAR     53  47  81 E3        30.13R
6HR MIN TEMP:  53; 6HR MAX TEMP:  57;

HEARNE         PTCLDY    52  50  93 CALM      30.14R
6HR MIN TEMP:  51; 6HR MAX TEMP:  61;

CAMERON        PTCLDY    54  53  95 CALM      30.13R
6HR MIN TEMP:  54; 6HR MAX TEMP:  61;

TEMPLE         MOCLDY    55  46  71 CALM      30.12S
6HR MIN TEMP:  55; 6HR MAX TEMP:  61;

KILLEEN        MOCLDY    60  55  84 S7        30.12S
6HR MIN TEMP:  59; 6HR MAX TEMP:  63;

KILLEEN-SKYLRK MOCLDY    61  52  72 SE5       30.10S
6HR MIN TEMP:  57; 6HR MAX TEMP:  63;

FORT HOOD      PTCLDY    61  54  77 CALM      30.13R
6HR MIN TEMP:  60; 6HR MAX TEMP:  62;

GATESVILLE     PTCLDY    57  52  82 CALM      30.15S
HAMILTON       MOCLDY    58  51  76 S10       30.14S
6HR MIN TEMP:  56; 6HR MAX TEMP:  59;

LAMPASAS       CLOUDY    58  55  91 CALM      30.11F
6HR MIN TEMP:  57; 6HR MAX TEMP:  60;

$$

TXZ095>097-106>112-122>126-135>138-148>153-164>167-301300-
EAST TEXAS

CITY           SKY/WX    TMP DP  RH WIND       PRES   REMARKS
PARIS          CLEAR     46  37  71 S3        30.15R
6HR MIN TEMP:  46; 6HR MAX TEMP:  54;

SULPHUR SPRNGS CLEAR     48  44  85 SE3       30.17R
6HR MIN TEMP:  47; 6HR MAX TEMP:  53;

MOUNT PLEASANT CLEAR     43  42  99 CALM      30.17R
6HR MIN TEMP:  41; 6HR MAX TEMP:  48;

MINEOLA        CLEAR     43  43 100 CALM      30.16R
TYLER          CLEAR     49  45  86 CALM      30.14S
6HR MIN TEMP:  49; 6HR MAX TEMP:  57;

LONGVIEW       CLEAR     47  44  90 CALM      30.15R
6HR MIN TEMP:  45; 6HR MAX TEMP:  51;

MARSHALL       CLEAR     46  44  93 CALM      30.17R
6HR MIN TEMP:  46; 6HR MAX TEMP:  51;

ATHENS         CLEAR     45  45 100 CALM      30.13F
PALESTINE      CLEAR     52  47  83 CALM      30.15S
JACKSONVILLE   CLEAR     54  46  75 E3        30.16R
HENDERSON      CLEAR     44  44 100 CALM      30.16R
6HR MIN TEMP:  43; 6HR MAX TEMP:  49;

NACOGDOCHES    CLEAR     43  39  87 CALM      30.15R
6HR MIN TEMP:  43; 6HR MAX TEMP:  46;

LUFKIN         CLEAR     48  44  86 CALM      30.14R
6HR MIN TEMP:  48; 6HR MAX TEMP:  55;

$$

SUPPLEMENTAL OBSERVATIONS (CENTRAL)

CITY           SKY/WX    TMP DP  RH WIND       PRES   REMARKS
LAKE TEXOMA      N/A     54  46  76 SE3         N/A
CADDO GRASSLND   N/A     46  43  87 S3          N/A
PAT MAYSE LAKE   N/A     48  45  87 CALM        N/A
GREENVILLE       N/A     48  43  81 S2          N/A
CEDAR HILL       N/A     55  45  67 SE6         N/A
ATHENS           N/A     48  43  81 CALM        N/A
PALESTINE        N/A     45  43  93 CALM        N/A
LAKE LIMESTONE   N/A     52  46  82 E2          N/A
MCGREGOR         N/A     55  48  76 NE3         N/A
TEMPLE           N/A     57  50  77 NE5         N/A